Mora, MN

5:28 PM CST on February 27, 2017 (GMT -0600)
Mora Municipal

Weather History for KJMR - March, 2013

Change the Weather History Date:

Saturday, March 30, 2013

  Actual Average Record
Temperature  
Mean Temperature 42 °F -  
Max Temperature 50 °F 46 °F 78 °F (1968)
Min Temperature 35 °F 24 °F -6 °F (1975)
Degree Days  
Heating Degree Days 22    
Moisture  
Dew Point 33 °F    
Average Humidity 77    
Maximum Humidity 93    
Minimum Humidity 47    
Precipitation  
Precipitation 0.53 in - - ()
Sea Level Pressure  
Sea Level Pressure 29.89 in    
Wind  
Wind Speed 5 mph (West)    
Max Wind Speed 13 mph    
Max Gust Speed 17 mph    
Visibility 7 miles    
Events Rain    
Averages and records for this station are not official NWS values.
T = Trace of Precipitation, MM = Missing Value Source: NWS Daily Summary

Daily Weather History Graph

Daily Weather History Graph

Search for Another Location

Airport or City:

Trip Planner

Search our weather history database for the weather conditions in past years. The results will help you decide how hot, cold, wet, or windy it might be!

Date:

Astronomy

Mar. 30, 2013 Rise Set
Actual Time 6:56 AM CDT 7:39 PM CDT
Civil Twilight 6:26 AM CDT 8:09 PM CDT
Nautical Twilight 5:50 AM CDT 8:45 PM CDT
Astronomical Twilight 5:13 AM CDT 9:22 PM CDT
Moon 11:59 PM CDT (3/30) 8:40 AM CDT (3/30)
Length of Visible Light 13h 43m
Length of Day
12h 42m
Waning Gibbous, 86% of the Moon is Illuminated
Mar 30
Waning Gibbous
Apr 2
Last Quarter
Apr 10
New
Apr 18
First Quarter
Apr 25
Full

Hourly Weather History & Observations

Time (CDT) Temp. Windchill Dew Point Humidity Pressure Visibility Wind Dir Wind Speed Gust Speed Precip Events Conditions
12:12 AM 35.6 °F 32.8 °F 32.0 °F 87% 30.06 in 4.0 mi SSE 3.5 mph - 0.01 in Rain Rain
12:32 AM 35.6 °F 30.7 °F 32.0 °F 87% 30.05 in 5.0 mi SSE 5.8 mph - 0.02 in Rain Rain
12:52 AM 35.6 °F 29.9 °F 32.0 °F 87% 30.03 in 5.0 mi SSE 6.9 mph - 0.02 in   Light Drizzle
1:12 AM 35.6 °F 30.7 °F 32.0 °F 87% 30.03 in 7.0 mi SSE 5.8 mph - N/A   Light Drizzle
1:31 AM 35.6 °F 31.7 °F 32.0 °F 87% 30.03 in 7.0 mi South 4.6 mph - N/A Rain Light Rain
1:52 AM 35.6 °F 30.7 °F 32.0 °F 87% 30.01 in 3.0 mi SSE 5.8 mph - 0.03 in Rain Rain
2:12 AM 35.6 °F 31.7 °F 32.0 °F 87% 29.99 in 7.0 mi SE 4.6 mph - N/A   Light Drizzle
2:32 AM 35.6 °F 32.8 °F 32.0 °F 87% 29.99 in 7.0 mi SE 3.5 mph - N/A   Overcast
2:52 AM 35.6 °F - 32.0 °F 87% 29.99 in 7.0 mi Calm Calm - N/A   Overcast
3:12 AM 35.6 °F 32.8 °F 32.0 °F 87% 29.99 in 4.0 mi North 3.5 mph - N/A Rain Light Rain
3:32 AM 35.6 °F 32.8 °F 32.0 °F 87% 29.97 in 5.0 mi SSE 3.5 mph - N/A Rain Light Rain
3:52 AM 35.6 °F 29.9 °F 32.0 °F 87% 29.95 in 7.0 mi South 6.9 mph - 0.01 in Rain Light Rain
4:12 AM 35.6 °F 28.6 °F 32.0 °F 87% 29.94 in 1.8 mi South 9.2 mph - 0.10 in Rain Heavy Rain
4:32 AM 35.6 °F 28.6 °F 32.0 °F 87% 29.92 in 1.8 mi South 9.2 mph - 0.23 in Rain Heavy Rain
4:52 AM 35.6 °F 27.1 °F 32.0 °F 87% 29.90 in 5.0 mi South 12.7 mph - 0.25 in Rain Light Rain
5:12 AM 35.6 °F 28.6 °F 32.0 °F 87% 29.90 in 7.0 mi South 9.2 mph - N/A   Overcast
5:32 AM 35.6 °F 29.2 °F 32.0 °F 87% 29.89 in 4.0 mi SSE 8.1 mph - 0.01 in Rain Rain
5:52 AM 35.6 °F 32.8 °F 32.0 °F 87% 29.89 in 5.0 mi South 3.5 mph - 0.01 in Rain Light Rain
6:12 AM 35.6 °F 31.7 °F 32.0 °F 87% 29.88 in 5.0 mi South 4.6 mph - N/A   Overcast
6:32 AM 35.6 °F 30.7 °F 32.0 °F 87% 29.88 in 2.0 mi South 5.8 mph - 0.04 in Rain Rain
6:51 AM 35.6 °F 30.7 °F 32.0 °F 87% 29.87 in 2.0 mi South 5.8 mph - 0.09 in Rain Rain
7:12 AM 35.6 °F 32.8 °F 32.0 °F 87% 29.88 in 1.8 mi SW 3.5 mph - 0.05 in Rain Rain
7:32 AM 35.6 °F - 32.0 °F 87% 29.87 in 1.5 mi Calm Calm - 0.12 in Rain Rain
7:52 AM 35.6 °F - 33.8 °F 93% 29.88 in 1.5 mi Calm Calm - 0.12 in Rain Light Rain
8:12 AM 35.6 °F - 33.8 °F 93% 29.88 in 0.8 mi Calm Calm - N/A   Overcast
8:32 AM 35.6 °F - 33.8 °F 93% 29.88 in 0.8 mi Calm Calm - N/A   Overcast
8:52 AM 35.6 °F - 33.8 °F 93% 29.88 in 1.0 mi Calm Calm - N/A   Overcast
9:12 AM 35.6 °F - 33.8 °F 93% 29.87 in 1.5 mi Calm Calm - N/A   Overcast
9:32 AM 35.6 °F 32.8 °F 33.8 °F 93% 29.87 in 1.8 mi WSW 3.5 mph - N/A   Overcast
9:52 AM 37.4 °F 34.9 °F 35.6 °F 93% 29.87 in 2.5 mi West 3.5 mph - N/A   Overcast
10:12 AM 37.4 °F 32.1 °F 35.6 °F 93% 29.87 in 3.0 mi NW 6.9 mph - N/A   Overcast
10:32 AM 37.4 °F 33.8 °F 35.6 °F 93% 29.87 in 4.0 mi WNW 4.6 mph - N/A   Overcast
10:52 AM 39.2 °F 37.0 °F 35.6 °F 87% 29.86 in 5.0 mi North 3.5 mph - N/A   Overcast
11:12 AM 39.2 °F 33.6 °F 35.6 °F 87% 29.87 in 5.0 mi NW 8.1 mph - N/A   Overcast
11:32 AM 39.2 °F 34.2 °F 35.6 °F 87% 29.87 in 7.0 mi NNW 6.9 mph - N/A   Overcast
11:51 AM 41.0 °F 36.4 °F 35.6 °F 81% 29.87 in 7.0 mi NW 6.9 mph - N/A   Overcast
12:12 PM 42.8 °F 38.6 °F 35.6 °F 76% 29.87 in 7.0 mi NNW 6.9 mph - N/A   Overcast
12:31 PM 42.8 °F 37.0 °F 35.6 °F 76% 29.87 in 7.0 mi NW 10.4 mph - N/A   Overcast
12:52 PM 44.6 °F 40.2 °F 35.6 °F 71% 29.88 in 7.0 mi NNW 8.1 mph - N/A   Scattered Clouds
1:12 PM 44.6 °F 40.7 °F 35.6 °F 71% 29.87 in 10.0 mi North 6.9 mph - N/A   Scattered Clouds
1:32 PM 44.6 °F 38.8 °F 35.6 °F 71% 29.87 in 7.0 mi NNW 11.5 mph - N/A   Scattered Clouds
1:52 PM 44.6 °F 42.2 °F 35.6 °F 71% 29.87 in 10.0 mi North 4.6 mph - N/A   Clear
2:12 PM 44.6 °F 42.2 °F 35.6 °F 71% 29.87 in 10.0 mi North 4.6 mph - N/A   Scattered Clouds
2:32 PM 46.4 °F 45.2 °F 35.6 °F 66% 29.86 in 10.0 mi North 3.5 mph - N/A   Scattered Clouds
2:52 PM 48.2 °F - 35.6 °F 62% 29.86 in 10.0 mi NW 5.8 mph - N/A   Clear
3:12 PM 48.2 °F - 33.8 °F 58% 29.85 in 10.0 mi NNW 8.1 mph - N/A   Clear
3:32 PM 48.2 °F - 32.0 °F 54% 29.85 in 10.0 mi North 5.8 mph - N/A   Clear
3:52 PM 48.2 °F - 32.0 °F 54% 29.86 in 10.0 mi North 6.9 mph - N/A   Clear
4:12 PM 48.2 °F - 32.0 °F 54% 29.85 in 10.0 mi NNW 5.8 mph - N/A   Clear
4:32 PM 50.0 °F - 32.0 °F 50% 29.85 in 10.0 mi NNW 9.2 mph - N/A   Clear
4:51 PM 50.0 °F - 30.2 °F 47% 29.85 in 10.0 mi NW 8.1 mph 17.3 mph N/A   Clear
5:12 PM 50.0 °F - 30.2 °F 47% 29.85 in 10.0 mi NW 11.5 mph 16.1 mph N/A   Clear
5:32 PM 50.0 °F - 30.2 °F 47% 29.84 in 10.0 mi NW 9.2 mph - N/A   Clear
5:52 PM 50.0 °F - 30.2 °F 47% 29.84 in 10.0 mi NW 6.9 mph - N/A   Clear
6:12 PM 48.2 °F - 30.2 °F 50% 29.83 in 10.0 mi NW 6.9 mph - N/A   Clear
6:32 PM 48.2 °F - 32.0 °F 54% 29.83 in 10.0 mi West 4.6 mph - N/A   Clear
6:52 PM 46.4 °F 43.5 °F 32.0 °F 57% 29.83 in 10.0 mi West 5.8 mph - N/A   Clear
7:12 PM 44.6 °F 41.4 °F 32.0 °F 61% 29.83 in 10.0 mi West 5.8 mph - N/A   Clear
7:32 PM 44.6 °F 41.4 °F 32.0 °F 61% 29.83 in 10.0 mi West 5.8 mph - N/A   Clear
7:52 PM 41.0 °F 37.1 °F 32.0 °F 70% 29.83 in 10.0 mi West 5.8 mph - N/A   Clear
8:12 PM 41.0 °F 37.1 °F 32.0 °F 70% 29.83 in 10.0 mi West 5.8 mph - N/A   Clear
8:32 PM 37.4 °F 33.8 °F 30.2 °F 75% 29.84 in 10.0 mi West 4.6 mph - N/A   Clear
8:52 PM 37.4 °F 32.8 °F 30.2 °F 75% 29.84 in 10.0 mi West 5.8 mph - N/A   Clear
9:12 PM 37.4 °F 32.1 °F 30.2 °F 75% 29.84 in 10.0 mi West 6.9 mph - N/A   Clear
9:32 PM 37.4 °F 32.1 °F 30.2 °F 75% 29.84 in 10.0 mi West 6.9 mph - N/A   Clear
9:51 PM 37.4 °F 32.8 °F 30.2 °F 75% 29.84 in 10.0 mi West 5.8 mph - N/A   Clear
10:12 PM 37.4 °F 32.8 °F 30.2 °F 75% 29.84 in 10.0 mi WNW 5.8 mph - N/A   Clear
10:32 PM 37.4 °F 32.8 °F 30.2 °F 75% 29.84 in 10.0 mi WNW 5.8 mph - N/A   Clear
10:52 PM 37.4 °F 31.4 °F 30.2 °F 75% 29.84 in 10.0 mi WNW 8.1 mph - N/A   Clear
11:12 PM 35.6 °F 29.2 °F 30.2 °F 81% 29.84 in 10.0 mi WNW 8.1 mph - N/A   Clear
11:32 PM 35.6 °F 29.2 °F 30.2 °F 81% 29.83 in 10.0 mi WNW 8.1 mph - N/A   Clear
11:52 PM 35.6 °F 29.9 °F 30.2 °F 81% 29.83 in 10.0 mi WNW 6.9 mph - N/A   Clear